World > North America > United States > Missouri > Elmwood

Hourly Elmwood, MO Regional Weather

Feedback E-mail the Weather

Quick WX

Elmwood, MO Weather Maps

°F °C°F °C
Elmwood Weather Map
UTC Time: 8/13/2022, 05:18
Your Time:

Elmwood, MO Regional Weather

Expires:202208130600;;007630
ASUS43 KEAX 130515
RWREAX

WEATHER ROUNDUP FOR EASTERN KANSAS AND NORTHWEST MISSOURI
NATIONAL WEATHER SERVICE KANSAS CITY/PLEASANT HILL MO
1200 AM CDT SAT AUG 13 2022


MOZ001>008-011>017-020>025-030>033-038>040-044>046-053-054-130600-
...NORTHERN AND CENTRAL MISSOURI...
  
CITY           SKY/WX    TMP DP  RH WIND       PRES   REMARKS
ST. JOSEPH     CLEAR     71  68  90 S7        30.05F                  
MOSBY          CLEAR     72  68  88 CALM      30.07F                  
HARRISONVILLE  CLEAR     73  70  88 SE3       30.11S                  
WHITEMAN AFB   CLEAR     74  71  89 SE6       30.05S                  
CLINTON        CLEAR     75  72  88 SE5       30.08S                  
SEDALIA        CLEAR     74  68  81 SE8       30.10F                  
MARSHALL       CLEAR     72  68  88 SE5       30.09F                  
CHILLICOTHE      N/A     75  69  81 S3        30.08S                  
MOBERLY        CLEAR     70  61  73 S8        30.10F                  
KIRKSVILLE     CLEAR     65  63  93 S6        30.09F                  

$$


SKY/WX - Weather  TMP - Temperature  DP - Dew Point  RH - Humidity
WIND - Wind Direction/Speed PRES - Barometric Pressure VSB - Visibility
WCI - Wind Chill Index E13G22 Wind - East Wind 13 mph/Gusts of 22 mph

Trending Headlines

Elmwood Radar Loop



Elmwood Quick Facts


National Two Day Weather Forecast


E-mail the Elmwood Weather Forecast

Voice your opinion or tell us about page issues...